HELLAS-SAT 4 & SGS-1 (44034 NORAD) Tracking and Keplerian Element Data

This shows tracking and keplerian element data for the satellite.

Feedback or suggestion? Click here.




ElementValue
Catalog44034
NameHELLAS-SAT 4 & SGS-1
Epoch Orbit30
Epoch Day52.26781301
Epoch Year2019
RAAN273.6228
Inclination1.3115
Eccentricity0.3556308
Argument of Perigee178.8177
Mean Anonmoly181.5656
Mean Motion1.58752807
Decay Rate-9.8E-07
L11 44034U 19007A 19052.26781301 -.00000098 00000-0 00000+0 0 9994
L22 44034 1.3115 273.6228 3556308 178.8177 181.5656 1.58752807 305

Live tracking and technical data element details for HELLAS-SAT 4 & SGS-1 (NORAD 44034). HELLAS-SAT 4 & SGS-1 can be tracked NOW for your location showing map with azimuth and elevation plus other details from your city location.

Track the satellite on the map from your city or location and see movement details for azimuth, elevation, latitude, longitude, range, height, and movement on the map or in text.







IsCatalogInMostPopularTable: catalog: 44034, numindb: 7
Update: records affected: 1



GetName: 44034 HELLAS-SAT 4 & SGS-1

Hit Count: updated at: Sat, 23 Feb 2019 16:48:44 GMT